Zurück zum Katalog

RADUGA 32

AktivKommunikationGEO
NORAD 23448·PAYLOAD·🇷🇺 Russia

Gestartet Dec 28, 1994 von Baikonur Cosmodrome

Loading…

TLE

AktuellSource: Space-Track

Epoche: Sep 13, 2026, 19:21 UTC

1 23448U 94087A   26256.80629486 -.00000136  00000-0  00000-0 0  9994
2 23448  14.2837 350.3036 0009153 264.5665 105.4076  1.00261846133772

Verfolge RADUGA 32 in Echtzeit mit AllMySat

Download on the App Store